Dewpoint
59 41 46 45 43 36 22 24 9 14 14 11 6 6 8 10 14 3 6 10 10 51 50 50 46 49 46 44 46 57 59 51 57 45 48 64 66 66 67 68 68 69 68 68 69 69 70 71 71 71 71 71 71 71 71 71 71 71 71 71 72 72 72 72 72 72 72 72 72 72 72 72 72 72 72 71 72 71 71 71 71 71 71 70 70 70 70 70 71 71 71 70 70 69 69 68 68
38 43 45 43 37 25 16 10 11 9 10 8 6 5 8 8 10 11 17 18 29 47 53 51 53 57 57 55 54 52 58 60 60 62 65 67 66 67 68 69 68 67 68 68 68 69 69 70 71 71 71 71 71 71 70 71 71 71 72 72 73 72 72 72 73 72 73 73 72 72 72 72 72 72 71 72 71 72 71 71 71 70 71 70 70 70 70 70 70 71 71 70 70 70 69 70 69
39 39 23 30 33 24 15 13 9 10 6 7 6 4 10 0 13 28 29 34 51 53 54 56 56 55 54 53 50 51 57 61 61 62 65 66 64 69 68 69 68 67 67 68 67 67 69 70 70 71 71 71 71 71 71 71 72 72 72 72 72 73 73 73 73 73 73 72 72 72 72 72 72 71 71 71 71 71 71 71 71 71 70 70 70 70 70 70 70 70 70 70 70 70 70 69 69
45 44 30 21 18 15 17 12 9 7 6 5 4 16 26 23 38 40 47 51 53 54 53 53 50 57 57 48 55 57 59 59 61 62 64 64 64 68 68 68 69 67 67 67 66 66 69 71 71 71 70 71 71 71 71 71 71 72 72 73 73 73 73 73 73 73 73 72 72 72 72 72 72 71 71 71 71 71 71 71 71 71 71 71 70 71 70 69 70 70 70 70 69 69 68 69 69
34 31 31 21 13 15 14 12 9 8 7 5 3 8 29 38 44 47 50 52 53 52 53 55 55 59 59 58 59 52 58 61 60 61 61 63 66 67 68 68 67 66 66 65 67 67 69 71 71 71 71 70 71 71 71 71 71 72 72 73 72 73 73 73 73 73 72 72 72 72 72 71 71 71 71 71 71 71 71 70 70 70 70 70 69 69 69 69 69 69 69 69 69 69 68 68 68
26 27 24 21 12 26 9 9 10 7 7 5 3 -1 36 39 44 47 51 53 53 53 54 53 52 53 55 60 60 59 59 58 61 61 63 64 66 67 67 66 66 65 66 66 68 68 69 71 71 71 71 70 70 70 71 71 71 71 72 73 72 72 72 73 73 72 72 72 72 72 72 72 71 71 71 71 71 71 71 71 71 70 70 69 69 69 69 68 68 68 68 69 68 67 68 69 69
22 22 17 14 10 14 8 7 6 5 1 6 1 -1 28 31 34 41 47 49 52 53 54 53 55 56 55 61 61 64 64 62 61 62 64 66 66 67 67 66 66 67 67 66 69 68 68 72 72 71 71 70 70 70 70 71 71 72 72 72 72 72 73 73 72 72 72 72 72 72 71 72 72 71 71 71 71 71 71 70 69 69 69 69 70 70 69 68 68 68 68 68 67 68 69 69 69
31 27 17 7 9 13 6 4 3 3 5 10 5 3 27 29 31 26 30 31 46 47 53 54 53 53 56 60 58 65 64 65 64 66 66 66 66 66 66 66 66 66 66 68 70 69 72 72 71 71 70 70 70 70 71 71 72 72 72 72 72 73 72 73 71 72 72 72 71 71 71 71 71 71 71 71 71 71 70 69 68 68 68 68 68 68 68 68 68 67 67 68 67 68 69 69 70
20 14 19 9 6 11 5 2 4 1 5 11 7 11 32 26 26 23 21 25 32 40 49 52 53 49 55 57 60 65 65 66 67 68 67 66 66 67 66 66 65 67 66 68 70 70 69 72 71 71 70 70 70 70 70 71 71 72 72 72 73 73 72 72 72 71 71 71 71 71 71 70 71 70 71 70 70 70 69 68 68 68 67 67 68 68 67 67 67 67 68 67 67 68 69 69 70
17 14 14 7 2 4 5 0 -0 0 4 3 3 8 6 9 17 19 19 18 27 46 50 55 53 52 57 57 61 64 66 67 67 67 68 67 68 67 67 66 66 66 67 69 69 67 69 71 71 71 71 70 70 70 70 71 72 72 72 72 72 72 72 72 72 72 71 71 71 71 71 70 70 70 70 70 69 69 68 68 68 68 67 67 67 67 67 67 67 67 68 68 68 68 69 70 70
15 9 20 12 10 2 -2 -2 -1 6 2 4 4 7 6 4 5 8 14 15 26 36 52 53 51 54 56 60 63 67 67 67 67 67 68 68 68 67 67 67 66 67 67 68 69 69 69 70 71 71 71 71 71 71 71 72 72 72 72 72 72 72 72 72 72 72 71 71 71 71 71 71 70 70 70 69 69 68 68 68 69 69 68 67 66 66 66 66 67 67 68 67 67 68 68 70 69
13 13 10 1 1 1 -4 -5 -5 -1 2 4 -1 8 8 13 17 10 13 14 21 33 47 51 51 55 56 58 62 66 67 68 67 68 68 68 67 67 66 66 66 67 68 68 68 69 69 70 70 71 71 71 72 72 72 72 72 72 72 72 72 72 72 72 72 72 71 71 71 71 70 70 70 70 69 69 69 69 69 69 69 69 69 69 68 68 67 67 67 67 68 68 67 67 69 70 70
12 10 9 0 -2 -2 -3 4 -5 2 -0 2 13 22 33 31 22 11 8 14 23 35 45 50 55 54 58 58 64 66 67 68 68 69 68 67 67 66 66 66 67 67 67 68 68 68 69 69 69 69 70 71 71 72 72 72 72 71 71 71 72 72 72 72 72 71 71 71 71 71 70 70 70 70 69 69 69 69 68 68 68 69 69 68 69 67 67 67 67 67 68 67 67 68 69 70 70
9 15 9 5 7 6 -0 -2 -5 2 -10 12 17 25 33 33 28 18 10 15 23 33 44 53 53 53 60 61 63 64 67 69 68 68 67 67 67 66 66 67 67 67 66 68 68 68 69 70 70 70 70 69 70 71 71 71 71 71 71 71 71 71 72 71 71 71 71 71 71 71 71 70 70 70 69 69 69 69 69 69 69 69 69 69 69 68 67 67 67 67 67 67 67 69 69 69 70
11 15 13 8 5 5 -1 -2 -6 -5 -12 12 19 20 35 43 46 32 14 16 25 36 55 54 53 52 56 57 61 63 66 67 67 67 67 66 66 67 67 67 68 67 67 68 67 68 69 70 69 69 69 69 69 69 69 70 71 71 71 71 71 71 71 71 71 71 71 71 71 71 71 71 71 70 70 69 68 67 68 68 69 69 69 69 69 69 68 67 67 67 67 67 67 68 69 69 69
15 15 9 11 4 2 -4 0 4 -2 -3 11 15 18 30 48 48 41 22 18 49 56 53 52 57 50 56 51 60 64 66 67 67 67 66 66 66 66 66 67 67 68 67 68 69 69 69 69 69 68 68 68 69 69 69 68 70 70 71 71 70 71 71 71 70 71 71 71 71 70 69 69 69 69 70 69 69 68 69 68 68 69 69 69 69 69 68 68 67 67 67 66 66 68 68 69 70
21 13 12 10 4 -1 -2 2 2 -9 8 12 15 15 15 38 48 41 41 32 53 53 50 56 57 58 54 59 63 65 66 67 67 66 66 66 65 65 66 66 66 67 68 68 68 68 69 69 68 66 67 67 67 68 68 67 69 70 70 69 69 70 70 70 71 71 71 70 69 69 70 67 67 67 69 66 70 68 69 69 68 68 68 68 69 69 69 69 68 68 67 66 65 67 69 69 70
16 12 12 8 -1 0 -1 -0 -2 11 9 11 13 14 18 27 49 48 46 50 49 54 59 60 60 58 61 62 64 65 66 66 66 65 65 65 65 64 64 65 64 65 65 66 67 68 67 66 66 66 66 66 67 65 66 67 68 67 67 68 68 70 70 70 70 69 69 69 69 69 66 65 65 65 66 65 66 69 70 70 69 69 69 69 69 69 69 69 69 68 67 67 65 64 67 68 68
14 12 10 3 2 -0 6 4 6 9 9 12 13 15 23 28 49 49 40 43 52 52 58 59 59 60 61 63 64 65 65 66 66 65 64 64 63 63 63 63 64 64 64 65 66 67 65 65 65 64 65 65 66 65 67 66 64 65 65 66 66 68 68 69 68 67 66 65 65 63 66 68 68 68 69 67 66 66 70 69 69 69 69 69 68 68 68 68 68 68 68 66 66 65 65 62 61
13 13 11 10 8 8 7 10 10 11 12 13 13 14 30 32 49 52 43 49 53 51 56 58 59 60 61 63 64 63 63 64 65 64 63 62 62 63 64 64 63 64 64 64 64 66 63 63 64 65 64 65 63 64 65 65 64 66 65 66 68 67 66 65 66 66 64 66 64 68 68 69 69 70 70 70 70 68 68 70 69 69 69 68 68 69 68 68 68 68 67 65 65 64 62 61 59
11 17 13 3 11 10 6 8 10 13 14 13 12 14 33 41 50 48 46 49 50 49 56 57 58 59 61 63 62 62 63 64 64 64 63 61 63 63 63 63 62 62 62 62 63 64 63 65 65 66 66 65 65 64 65 63 66 65 67 68 68 66 66 66 66 67 67 67 68 69 68 68 68 68 68 68 68 68 67 68 68 67 67 66 67 66 65 64 69 65 64 66 61 60 60 62 62
23 16 6 16 17 7 14 11 15 14 14 12 12 14 37 48 53 46 50 46 43 49 58 58 59 60 60 62 62 62 63 64 64 63 62 64 63 64 63 63 63 62 62 60 60 62 64 65 66 65 66 66 66 64 64 64 65 64 67 69 67 67 66 67 66 67 67 68 68 68 68 68 68 67 68 67 68 68 68 67 68 68 67 68 67 64 61 63 63 61 61 61 60 59 61 63 63
18 18 13 22 16 7 17 15 14 14 13 11 11 28 51 51 50 48 51 45 57 55 59 59 60 60 61 62 62 62 63 64 64 63 63 63 63 64 63 62 61 59 59 59 61 62 64 65 66 66 65 65 66 66 66 64 63 64 65 65 65 66 66 67 65 66 67 67 67 68 68 67 67 67 67 68 67 68 68 68 67 68 69 68 68 67 66 63 61 60 61 62 62 60 60 61 64
12 9 18 18 18 16 18 15 14 14 13 12 11 25 49 49 49 52 49 58 58 57 58 59 59 61 62 62 62 63 64 64 64 64 64 64 64 63 63 62 60 60 59 61 60 63 64 64 65 65 65 65 66 66 66 63 64 65 67 66 66 66 65 65 65 65 67 67 67 69 68 67 66 67 67 67 68 68 68 68 68 67 69 68 68 68 66 65 63 60 62 60 58 59 59 62 60
11 11 19 16 16 16 15 13 14 14 13 12 11 14 43 51 49 54 51 57 59 59 59 60 61 62 62 62 63 64 64 64 65 65 64 64 64 64 62 60 60 59 59 61 61 63 64 65 65 64 64 65 65 65 65 64 65 66 66 65 65 66 66 66 66 68 68 67 68 68 68 68 67 67 67 67 67 67 68 68 67 68 68 68 68 67 67 67 67 65 64 59 60 60 59 62 60
12 9 16 17 16 15 13 13 14 13 11 14 12 13 39 53 56 52 57 59 59 60 60 60 61 63 63 63 63 63 64 64 64 64 63 63 64 63 62 60 60 60 60 61 63 64 65 66 65 64 65 65 65 65 65 65 65 65 66 67 67 69 69 70 70 68 69 69 68 68 69 68 68 67 67 67 67 67 67 68 67 66 67 67 67 68 68 68 67 66 66 65 60 60 59 60 60
13 13 18 16 15 15 15 13 12 11 10 28 26 18 39 57 55 52 61 60 61 60 59 61 61 62 62 63 63 64 64 64 64 64 64 64 63 62 62 60 61 61 62 63 63 64 66 65 66 67 67 67 67 65 65 66 67 67 68 69 68 68 69 70 70 70 69 69 69 69 68 68 69 68 68 67 67 67 68 67 66 67 66 67 67 68 68 68 68 67 66 66 66 64 63 61 59
17 15 16 16 16 15 13 12 11 11 18 35 37 35 48 54 55 50 58 61 62 59 60 60 60 62 62 63 62 64 64 65 64 64 64 63 62 61 61 60 61 62 62 63 63 65 65 66 67 68 68 68 67 67 67 68 69 69 70 69 68 70 71 70 69 69 70 68 68 69 68 68 68 68 69 68 67 67 67 66 67 68 67 67 68 68 67 67 67 66 66 68 68 68 67 65 65
12 13 10 11 10 10 11 10 10 11 14 33 38 45 46 50 50 55 59 61 61 60 60 59 59 62 62 63 63 64 64 64 65 64 64 63 63 62 61 62 61 62 61 64 65 66 68 69 68 69 70 70 69 68 69 70 69 69 69 69 69 70 69 68 68 68 68 68 69 68 68 68 69 69 69 68 67 67 67 69 67 68 67 67 68 67 67 67 67 66 67 67 66 67 67 67 66
13 11 8 7 7 5 9 11 10 9 20 37 42 34 39 48 52 58 60 60 60 60 60 59 61 62 63 64 63 63 64 64 64 64 64 63 63 62 62 64 64 63 62 64 67 68 69 69 68 69 70 70 70 70 69 68 69 69 69 70 70 69 68 68 68 68 68 68 68 68 68 68 68 68 68 68 67 67 68 67 67 67 66 68 68 68 66 66 66 66 66 64 64 65 65 66 65
8 8 9 8 3 1 6 9 9 7 33 42 43 34 35 50 57 60 60 62 61 60 62 60 62 63 64 63 63 63 64 64 64 64 64 64 64 62 64 65 65 65 64 66 68 69 69 69 69 69 70 70 71 69 70 69 69 69 69 68 68 69 67 67 67 67 67 67 67 67 68 68 68 68 68 68 67 66 66 66 66 65 67 68 67 67 67 66 66 66 66 65 65 64 63 65 65
6 7 7 5 5 -1 8 10 9 6 48 47 40 33 38 53 55 57 57 58 56 56 57 58 59 60 61 61 62 62 63 63 64 64 65 65 64 63 65 66 67 66 68 69 70 70 68 69 69 68 69 68 68 68 70 69 70 70 68 67 68 68 67 67 67 67 67 67 67 67 67 67 68 67 68 68 67 67 65 65 65 67 68 68 67 67 67 66 66 66 66 66 65 64 64 64 65
7 8 10 5 4 2 6 9 11 19 41 44 35 22 50 54 55 55 57 56 54 53 55 57 57 58 59 59 60 61 60 64 64 64 64 64 64 64 65 65 65 67 67 67 66 67 68 67 67 68 68 69 69 68 68 68 68 68 68 68 68 67 67 66 66 67 67 67 66 66 67 68 67 67 68 67 67 67 65 67 66 68 69 68 68 67 66 67 67 66 66 66 66 65 65 65 65
9 6 10 6 1 2 4 14 15 25 40 37 38 33 51 54 55 54 57 56 56 54 55 56 57 59 58 59 59 58 61 63 63 63 64 65 65 64 64 64 66 65 66 66 66 66 66 67 67 68 68 68 68 67 68 68 67 67 67 66 67 66 67 66 66 67 67 66 67 66 67 67 67 67 67 68 69 67 67 67 67 67 67 67 67 67 67 67 67 67 66 66 65 66 65 65 65
12 11 13 11 3 4 5 7 23 30 35 31 35 38 49 54 55 53 58 58 56 55 56 56 57 58 60 60 59 59 60 60 62 63 64 65 64 64 65 65 65 65 65 66 66 67 68 67 67 68 67 67 67 68 68 68 68 68 67 67 67 66 66 65 66 65 66 67 66 67 67 67 67 67 67 67 68 66 66 66 67 67 67 67 66 66 67 67 67 67 67 67 68 67 65 66 66
8 6 7 10 7 5 3 28 29 31 31 32 33 41 49 54 54 55 56 57 56 55 57 57 57 57 58 60 60 59 58 58 61 61 63 65 65 64 65 65 65 66 66 66 67 67 66 66 66 67 67 67 67 68 66 67 67 65 64 65 65 65 65 65 66 65 66 66 66 67 66 67 66 67 66 67 67 67 66 66 66 67 66 66 66 66 66 66 66 66 66 66 66 66 65 65 66
8 8 6 5 1 4 22 30 39 40 28 31 30 45 50 54 55 55 56 56 56 56 55 56 57 56 58 58 59 58 58 59 60 59 60 61 63 65 64 65 64 66 66 66 65 66 66 65 66 67 68 68 66 67 67 66 65 65 64 63 64 66 65 65 65 66 66 66 66 66 66 67 66 66 66 66 66 66 66 67 66 66 66 66 66 66 66 66 66 66 65 65 65 64 65 65 66
8 6 2 4 2 10 18 27 35 44 35 42 42 46 49 54 54 54 55 55 55 55 54 55 56 57 57 57 57 57 58 60 60 60 60 61 62 63 64 64 64 64 64 65 65 66 66 65 65 65 66 67 66 66 66 65 65 64 64 63 64 64 64 63 64 65 65 66 66 66 66 66 66 65 66 66 66 66 66 66 66 66 66 66 66 66 66 65 65 65 64 64 65 63 63 64 66
6 5 5 5 2 27 33 35 36 40 35 40 43 44 48 53 53 54 53 52 55 55 54 55 57 56 56 57 57 58 58 59 60 60 60 61 61 62 62 63 62 63 64 64 65 64 65 64 65 65 65 65 65 65 64 65 66 67 66 65 65 64 65 65 64 64 65 64 64 64 64 64 64 64 65 65 65 65 65 65 65 66 66 65 66 66 67 66 65 65 64 64 63 64 63 63 66
10 7 7 4 23 20 23 34 33 34 31 40 43 43 50 53 54 54 54 53 53 55 54 55 57 56 57 58 57 58 59 59 59 60 60 61 61 61 61 61 61 62 61 62 63 64 64 64 65 65 64 65 65 65 65 66 67 67 67 66 65 64 64 64 64 64 63 63 63 63 63 63 63 64 64 64 64 64 64 64 64 64 65 65 64 64 63 64 64 65 65 64 65 61 61 61 64
13 7 5 2 20 8 16 30 35 37 40 41 42 44 45 51 51 51 53 53 52 53 53 53 54 58 58 58 57 60 60 60 59 59 59 59 60 60 60 60 61 61 61 61 62 62 62 62 63 64 64 64 65 65 65 66 66 65 65 65 64 64 65 64 63 62 62 62 62 62 61 61 61 61 62 62 61 62 62 62 62 62 62 62 63 63 62 62 62 62 63 63 64 62 60 62 62
12 12 4 6 12 23 29 32 30 31 37 42 32 29 36 45 47 50 51 53 52 52 52 52 51 54 56 56 56 57 58 59 59 58 58 58 58 59 60 60 59 59 60 60 61 62 62 61 62 62 62 63 64 64 65 65 65 64 63 63 62 62 61 62 61 61 60 60 59 61 61 59 58 59 58 58 58 59 59 60 60 59 60 60 61 60 60 60 60 61 61 62 62 63 62 61 61
14 10 11 19 14 25 29 29 25 27 35 39 32 20 35 43 43 47 51 52 52 52 53 52 53 53 55 55 55 56 57 57 58 57 57 58 57 58 58 59 58 58 58 60 60 60 61 61 61 61 62 61 62 63 62 62 62 62 62 61 61 61 60 60 61 60 60 58 59 59 59 58 55 55 55 55 56 56 57 58 59 58 58 58 59 59 58 59 59 59 59 60 60 60 62 60 60
9 9 9 27 26 26 22 24 19 21 23 39 39 34 33 37 42 47 49 51 52 51 52 53 52 52 53 54 56 56 56 56 56 56 57 57 58 57 56 57 57 57 58 58 58 59 60 61 61 61 60 59 60 60 60 61 61 61 61 61 61 60 60 59 59 59 59 59 58 58 59 57 55 54 54 53 54 55 55 55 56 57 56 56 57 56 57 58 58 58 59 59 59 60 60 60 60
9 9 11 19 27 26 23 20 18 20 32 35 33 32 30 32 42 48 49 48 50 50 51 52 52 52 53 55 56 56 57 56 55 56 56 57 56 56 56 56 57 57 57 56 57 58 58 59 59 58 58 59 59 60 60 59 60 60 60 60 60 59 59 58 57 57 57 58 58 58 58 57 55 55 53 53 53 53 54 53 54 55 56 56 53 54 56 56 57 57 57 56 57 57 57 59 60
12 11 11 13 17 26 25 20 19 30 27 24 29 28 21 21 41 45 48 46 46 49 50 50 52 52 54 55 55 56 56 55 55 56 56 55 55 55 55 55 55 56 56 56 56 56 57 58 57 57 57 57 58 59 59 59 59 59 59 59 59 58 57 57 56 56 56 57 57 57 57 56 54 54 54 52 52 51 52 52 50 51 53 52 51 52 54 54 54 56 56 57 57 57 56 57 57
16 17 17 21 20 22 25 25 25 29 21 20 26 28 18 18 40 40 44 44 44 46 48 50 51 53 53 55 54 54 54 54 54 55 56 55 55 55 54 54 55 55 55 55 55 56 56 56 56 56 56 56 57 57 57 57 57 57 57 57 57 56 56 56 55 55 55 56 56 56 56 54 54 52 52 52 52 51 52 51 51 50 52 52 51 50 52 51 52 53 54 56 55 55 55 55 55
15 14 12 12 18 22 23 26 28 22 15 13 22 28 21 15 32 37 42 44 44 45 46 49 51 52 54 54 54 54 54 54 54 54 54 54 54 54 54 53 53 53 54 54 55 55 55 55 55 55 55 55 55 55 55 55 54 55 55 56 55 55 55 55 54 54 54 54 55 55 54 54 53 53 51 50 51 51 51 51 52 51 50 51 50 51 52 51 51 50 51 53 53 54 54 53 54
12 12 13 14 15 19 13 16 18 18 12 16 25 26 23 20 21 38 39 40 42 45 46 49 52 51 53 54 54 55 54 54 53 53 53 53 53 53 53 53 53 53 53 54 54 55 54 54 54 53 53 54 54 54 54 53 54 54 54 54 54 54 53 53 53 53 53 54 54 53 53 53 53 52 50 50 50 51 50 51 50 49 49 50 50 50 51 51 50 49 50 50 51 51 50 52 51
9 12 15 13 10 11 13 13 16 13 21 23 26 24 22 22 33 37 36 41 44 46 47 49 51 52 53 53 53 53 54 53 54 53 53 53 53 53 53 53 53 53 54 54 54 54 54 53 53 53 52 53 53 53 53 52 53 53 54 53 53 52 52 53 52 52 53 53 53 53 53 52 51 51 49 49 49 48 48 49 49 50 49 49 49 50 50 50 50 47 48 48 49 49 50 51 51
5 8 11 14 12 14 14 10 13 10 14 25 28 27 22 21 27 44 45 44 45 46 45 50 52 53 54 53 52 53 53 53 53 53 53 53 53 54 54 54 54 54 54 54 54 53 53 53 52 52 52 52 52 52 52 52 51 52 52 52 51 52 51 51 51 52 52 52 52 52 52 51 50 49 47 49 48 49 49 48 48 48 48 49 49 49 49 49 49 48 47 48 47 48 48 49 49
5 6 8 12 12 15 9 17 14 17 25 25 30 25 29 33 44 45 46 47 48 46 47 50 52 52 53 52 52 52 53 52 53 53 53 53 53 54 54 54 54 54 54 53 53 53 53 52 52 52 51 51 51 51 51 51 51 51 51 51 51 51 50 50 50 50 51 51 51 50 50 50 49 48 49 48 48 47 47 45 45 46 47 48 48 47 47 48 49 48 47 47 47 46 47 48 48
7 4 9 8 10 9 19 22 31 27 23 18 29 28 32 42 43 43 44 46 46 45 47 49 51 52 52 51 51 52 52 52 52 52 52 53 53 53 53 53 53 52 51 52 52 52 52 52 52 51 51 51 51 51 51 50 50 50 50 50 50 50 50 50 49 50 50 50 50 50 49 48 49 48 48 48 47 46 46 46 45 45 46 46 47 46 46 47 48 47 47 47 47 47 47 47 47
6 9 8 10 12 13 19 10 17 14 14 18 26 22 26 24 21 43 44 46 44 45 46 48 52 52 51 52 52 52 52 52 52 52 52 52 52 52 52 52 52 52 52 52 52 52 52 52 52 51 50 50 50 50 50 50 49 49 49 49 49 49 49 49 49 49 49 49 49 48 48 47 47 47 46 46 46 45 45 45 44 44 45 44 45 45 45 45 46 45 47 45 45 47 46 46 46
6 6 6 9 13 12 19 14 14 11 11 12 26 21 22 24 28 41 43 43 45 46 47 48 50 51 51 52 52 52 52 52 52 51 51 51 51 51 51 52 52 52 52 51 51 51 51 52 51 50 50 50 49 49 49 49 49 49 48 48 48 47 48 48 47 47 48 47 46 46 46 46 47 46 45 45 45 44 44 44 44 43 43 42 43 44 44 44 44 44 44 43 44 45 44 45 46
11 9 2 6 14 16 12 14 18 16 10 13 21 25 23 29 28 39 43 44 45 45 47 47 49 50 52 51 51 51 51 51 51 50 50 50 50 50 51 51 50 50 50 51 51 50 51 51 50 50 50 49 49 49 49 49 49 49 48 47 47 44 45 45 46 46 46 45 44 45 46 47 46 45 45 45 43 43 43 42 42 41 41 41 41 42 43 42 43 43 42 42 42 42 41 42 44
7 9 9 10 19 16 13 20 10 12 12 11 14 22 22 27 31 37 42 44 46 47 47 48 48 50 51 51 51 51 51 51 50 50 50 50 50 51 50 50 49 50 50 50 50 50 49 49 50 49 49 48 48 48 47 48 48 47 46 45 45 45 45 45 46 46 46 46 46 46 45 45 44 44 44 44 44 43 41 42 40 41 40 40 40 41 42 42 42 41 41 42 40 40 39 41 42
4 9 12 8 12 12 12 14 11 11 12 13 13 16 26 43 45 40 37 44 47 47 48 48 47 49 51 51 51 51 50 50 50 50 50 50 50 50 50 50 50 50 50 50 49 49 49 48 47 46 46 46 46 45 46 46 46 46 46 46 46 46 45 46 47 46 45 43 44 44 45 44 44 44 43 41 42 44 42 41 40 39 39 38 39 39 40 41 40 40 40 41 41 39 39 40 41